Погода в Куйбышеве

Россия / Республика Хакасия     53°11′49″N   90°46′46″E
темп.,
°C
ветер,
м/с
пор.,
м/с
влажн.,
%
обл.,
%
осадки,
мм/ч
давл.,
гПа
погр.,
м
21 апреля, ср
ср2101:00−5ссз115795 0.0 102536
04:00−5всв355887 0.0 1025186
07:00−5св24517 0.0 1026236
10:00−2св3239100 0.0 10241389
13:00+1св3228100 0.0 10221849
16:00+2ссв3329100 0.0 10211794
19:00+1ссв4534100 0.0 1022710
22:00−2св4948100 0.0 1025351
22 апреля, чт
чт2201:00−2с3748100 0.0 1027343
04:00−3с115499 0.0 102838
07:00−2ссв015212 0.0 1031133
10:00+1ссв56345 0.0 10321659
13:00+3ссв6633100 0.0 10322201
16:00+3ссв6639100 0.0 10341964
19:00+2ссв664558 0.0 10361429
22:00−1с6116789 0.0 1038551
23 апреля, пт
пт2301:00−1с4870100 0.0 1039412
04:00−2с2571100 0.0 1038301
07:00−1ссв3665100 0.0 1039561
10:00+1ссв5646100 0.0 10381225
13:00+4ссв6640100 0.0 10371591
16:00+4св4542100 0.0 10361644
19:00+2с3470100 0.0 1036782
22:00+1зсз1198100 0.4 103681
24 апреля, сб
сб2401:000сз1399100 2.6 1035124
04:000зсз129898 0.8 1034130
07:000зсз1293100 1.2 1033223
10:00+2ссз227092 0.3 1031851
13:00+3ссв236389 0.4 10291033
16:00+5ссв3357100 0.1 10281185
19:00+4сз2267100 0.1 1028852
22:00+2юз239392 0.0 1029106
25 апреля, вс
вс2501:00+1юз2498100 0.1 1029237
04:00+1зюз2499100 1.5 1029159
07:00+1юз3397100 2.4 1030169
10:00+3юз3382100 0.3 1031630
13:00+5юз4469100 0.8 1030976
16:00+6зсз2259100 0.9 10301061
19:00+4зсз1178100 1.4 1031540
22:00+2с0198100 1.5 1033412